KAITUO 1B
1 40912U 15049P   18094.08544947  .00000946  00000-0  49014-4 0  9999
2 40912  97.4516 102.4661 0013560 271.0417 129.9559 15.18569428140427
TIANWANG 1C (TW-1C)
1 40926U 15051B   18094.47382334  .00006751  00000-0  13162-3 0  9994
2 40926  97.1912 137.1863 0010062 174.8718 292.4689 15.47798132141908
TIANWANG 1B (TW-1B)
1 40927U 15051C   18094.50191926  .00006349  00000-0  12910-3 0  9997
2 40927  97.2005 137.0859 0010024 187.2328 283.0596 15.46598162141824
TIANWANG 1A (TW-1A)
1 40928U 15051D   18093.99423523  .00002576  00000-0  70351-4 0  9993
2 40928  97.1934 129.4356 0010494 223.1944 222.5538 15.38272192141374
LAPAN A2
1 40931U 15052B   18094.02931841  .00000661  00000-0  30322-5 0  9998
2 40931   6.0017 318.8607 0012955  37.4633 322.6506 14.76570237136022
LQSAT
1 40958U 15057A   18094.46317704  .00000011  00000-0  94574-5 0  9994
2 40958  97.9449 169.2081 0017340 208.8406 151.1842 14.73023389133997
CHUBUSAT 2
1 41338U 16012B   18093.31640649  .00000361  00000-0  21585-4 0  9998
2 41338  31.0035  69.3228 0013815  52.1069 308.0814 14.99947302116587
CHUBUSAT 3
1 41339U 16012C   18094.27111346  .00000323  00000-0  18501-4 0  9994
2 41339  31.0107  61.9613 0013479  68.1975 292.0088 15.00137674116719
OUFTI-1
1 41458U 16025C   18094.01753471  .00001695  00000-0  91857-4 0  9991
2 41458  98.1452 152.8842 0171538  36.9986 324.2927 15.04437980106286
E-STAR-2
1 41459U 16025D   18094.14465623  .00001655  00000-0  89983-4 0  9998
2 41459  98.1455 152.8867 0172980  37.1945 324.1125 15.04188893106293
AAUSAT 4
1 41460U 16025E   18094.05852988  .00001453  00000-0  79097-4 0  9995
2 41460  98.1381 153.1853 0163882  33.9125 327.2448 15.05526763106337
NUSAT 1
1 41557U 16033B   18094.17759727  .00001243  00000-0  47928-4 0  9996
2 41557  97.4381 178.5304 0015259  63.0501 297.2295 15.28142169102852
BEESAT 4
1 41619U 16040W   18093.90928324 +.00001282 +00000-0 +59306-4 0  9990
2 41619 097.4227 158.0638 0013124 126.6357 233.6088 15.21890209086793
PRATHAM
1 41783U 16059A   18093.72101093 +.00000068 +00000-0 +22648-4 0  9998
2 41783 098.1257 156.4530 0032833 331.4764 028.4640 14.62910240081077
ALSAT 1N
1 41789U 16059G   18094.08262323  .00000081  00000-0  24564-4 0  9992
2 41789  98.1263 157.8829 0027370 323.1477  36.7862 14.64138912 81174
NAYIF 1
1 42017U 17008BX  18093.91756512 +.00001344 +00000-0 +58122-4 0  9991
2 42017 097.4554 159.3990 0004807 283.8649 076.2053 15.24191099062759
LILACSAT-1
1 42725U 98067ME  18094.29352847  .00017752  00000-0  17568-3 0  9994
2 42725  51.6378  14.0317 0003236 322.9123  37.1649 15.65932489 48929
MAX VALIER SAT
1 42778U 17036P   18093.91672721 +.00000827 +00000-0 +40218-4 0  9997
2 42778 097.4116 154.8372 0011796 337.0696 023.0011 15.21137255043215
